When you browse on this site, cookies collect data to enhance your experience and personalize the content and advertising you see.
Visit our Privacy Policy to learn more. By continuing to use the site, you agree to this use of cookies and data.
  • In Latvia
  • List of Countries
  • For 7 days
  • Water Temperature
  • Weather Map
  • Weather Widgets
  • user-avatar
    Login

    Hourly Weather Ali Bayramli

    Today, 19 August, Monday

    Time Temperature Precipitation Wind Pressure Humidity
    00:00 +25°C° 0 mm 2 mps 756 mmHg 46%
    01:00 +24°C° 0 mm 2 mps 756 mmHg 50%
    02:00 +24°C° 0 mm 2 mps 756 mmHg 53%
    03:00 +23°C° 0 mm 1 mps 756 mmHg 53%
    04:00 +24°C° 0 mm 1 mps 757 mmHg 51%
    05:00 +24°C° 0 mm 1 mps 757 mmHg 49%
    06:00 +25°C° 0 mm 1 mps 757 mmHg 48%
    07:00 +28°C° 0 mm 2 mps 758 mmHg 41%
    08:00 +31°C° 0 mm 3 mps 758 mmHg 35%
    09:00 +35°C° 0 mm 3 mps 758 mmHg 29%
    10:00 +36°C° 0 mm 4 mps 758 mmHg 25%
    11:00 +39°C° 0 mm 5 mps 758 mmHg 21%
    12:00 +40°C° 0 mm 6 mps 758 mmHg 17%
    13:00 +40°C° 0 mm 6 mps 758 mmHg 16%
    14:00 +40°C° 0 mm 7 mps 758 mmHg 16%
    15:00 +39°C° 0 mm 7 mps 758 mmHg 15%
    16:00 +38°C° 0 mm 6 mps 758 mmHg 16%
    17:00 +36°C° 0 mm 5 mps 758 mmHg 18%
    18:00 +34°C° 0 mm 4 mps 758 mmHg 19%
    19:00 +32°C° 0 mm 4 mps 758 mmHg 23%
    20:00 +29°C° 0 mm 3 mps 759 mmHg 26%
    21:00 +27°C° 0 mm 2 mps 759 mmHg 30%
    22:00 +26°C° 0 mm 2 mps 759 mmHg 34%
    23:00 +25°C° 0 mm 1 mps 759 mmHg 39%

    Tomorrow, 20 August, Tuesday

    Time Temperature Precipitation Wind Pressure Humidity
    00:00 +24°C° 0 mm 1 mps 759 mmHg 44%
    01:00 +24°C° 0 mm 1 mps 759 mmHg 42%
    02:00 +23°C° 0 mm 1 mps 759 mmHg 41%
    03:00 +23°C° 0 mm 1 mps 759 mmHg 40%
    04:00 +24°C° 0 mm 2 mps 759 mmHg 38%
    05:00 +24°C° 0 mm 2 mps 759 mmHg 37%
    06:00 +25°C° 0 mm 2 mps 760 mmHg 35%
    07:00 +28°C° 0 mm 2 mps 760 mmHg 30%
    08:00 +31°C° 0 mm 2 mps 760 mmHg 25%
    09:00 +35°C° 0 mm 2 mps 760 mmHg 19%
    10:00 +36°C° 0 mm 2 mps 760 mmHg 18%
    11:00 +38°C° 0 mm 3 mps 759 mmHg 16%
    12:00 +41°C° 0 mm 4 mps 759 mmHg 15%
    13:00 +41°C° 0 mm 5 mps 759 mmHg 16%
    14:00 +40°C° 0 mm 6 mps 758 mmHg 17%
    15:00 +40°C° 0 mm 7 mps 758 mmHg 18%
    16:00 +38°C° 0 mm 6 mps 758 mmHg 20%
    17:00 +36°C° 0 mm 5 mps 758 mmHg 23%
    18:00 +34°C° 0 mm 5 mps 758 mmHg 25%
    19:00 +32°C° 0 mm 4 mps 758 mmHg 30%
    20:00 +29°C° 0 mm 3 mps 759 mmHg 35%
    21:00 +27°C° 0 mm 2 mps 759 mmHg 40%
    22:00 +26°C° 0 mm 2 mps 759 mmHg 41%
    23:00 +25°C° 0 mm 1 mps 758 mmHg 42%

    Day after tomorrow, 21 August, Wednesday

    Time Temperature Precipitation Wind Pressure Humidity
    00:00 +24°C° 0 mm 1 mps 758 mmHg 44%
    01:00 +24°C° 0 mm 1 mps 758 mmHg 44%
    02:00 +23°C° 0 mm 1 mps 758 mmHg 44%
    03:00 +21°C° 0 mm 0 mps 758 mmHg 44%
    04:00 +24°C° 0 mm 1 mps 758 mmHg 41%
    05:00 +25°C° 0 mm 1 mps 758 mmHg 38%
    06:00 +26°C° 0 mm 2 mps 758 mmHg 36%
    07:00 +29°C° 0 mm 2 mps 758 mmHg 30%
    08:00 +32°C° 0 mm 2 mps 758 mmHg 24%
    09:00 +36°C° 0 mm 3 mps 758 mmHg 18%
    10:00 +37°C° 0 mm 3 mps 758 mmHg 16%
    11:00 +39°C° 0 mm 3 mps 758 mmHg 14%
    12:00 +40°C° 0 mm 3 mps 757 mmHg 13%
    13:00 +41°C° 0 mm 4 mps 757 mmHg 13%
    14:00 +42°C° 0 mm 5 mps 757 mmHg 14%
    15:00 +42°C° 0 mm 6 mps 756 mmHg 15%
    16:00 +40°C° 0 mm 6 mps 756 mmHg 20%
    17:00 +37°C° 0 mm 5 mps 756 mmHg 25%
    18:00 +34°C° 0 mm 5 mps 756 mmHg 30%
    19:00 +32°C° 0 mm 4 mps 756 mmHg 37%
    20:00 +29°C° 0 mm 3 mps 756 mmHg 45%
    21:00 +27°C° 0 mm 2 mps 756 mmHg 52%
    22:00 +26°C° 0 mm 2 mps 756 mmHg 53%
    23:00 +26°C° 0 mm 2 mps 756 mmHg 54%

    22 August, Thursday

    Time Temperature Precipitation Wind Pressure Humidity
    00:00 +25°C° 0 mm 2 mps 756 mmHg 55%
    01:00 +25°C° 0 mm 2 mps 756 mmHg 54%
    02:00 +25°C° 0 mm 2 mps 756 mmHg 54%
    03:00 +25°C° 0 mm 2 mps 756 mmHg 53%
    04:00 +26°C° 0 mm 2 mps 756 mmHg 51%
    05:00 +26°C° 0 mm 1 mps 756 mmHg 49%
    06:00 +27°C° 0 mm 1 mps 756 mmHg 47%
    07:00 +29°C° 0 mm 1 mps 756 mmHg 40%
    08:00 +32°C° 0 mm 1 mps 756 mmHg 32%
    09:00 +34°C° 0 mm 1 mps 756 mmHg 25%
    10:00 +37°C° 0 mm 2 mps 756 mmHg 22%
    11:00 +39°C° 0 mm 3 mps 756 mmHg 19%
    12:00 +41°C° 0 mm 4 mps 755 mmHg 16%
    13:00 +41°C° 0 mm 5 mps 755 mmHg 16%
    14:00 +41°C° 0 mm 6 mps 755 mmHg 16%
    15:00 +41°C° 0 mm 7 mps 754 mmHg 16%
    16:00 +40°C° 0 mm 6 mps 754 mmHg 19%
    17:00 +38°C° 0 mm 6 mps 754 mmHg 22%
    18:00 +35°C° 0 mm 5 mps 754 mmHg 26%
    19:00 +33°C° 0 mm 4 mps 755 mmHg 32%
    20:00 +30°C° 0 mm 3 mps 755 mmHg 39%
    21:00 +28°C° 0 mm 2 mps 755 mmHg 45%
    22:00 +27°C° 0 mm 2 mps 755 mmHg 48%
    23:00 +27°C° 0 mm 2 mps 755 mmHg 50%

    23 August, Friday

    Time Temperature Precipitation Wind Pressure Humidity
    00:00 +26°C° 0 mm 1 mps 755 mmHg 53%
    01:00 +27°C° 0 mm 2 mps 755 mmHg 50%
    02:00 +27°C° 0 mm 2 mps 755 mmHg 47%
    03:00 +27°C° 0 mm 3 mps 755 mmHg 44%
    04:00 +28°C° 0 mm 2 mps 755 mmHg 44%
    05:00 +28°C° 0 mm 2 mps 755 mmHg 43%
    06:00 +28°C° 0 mm 2 mps 755 mmHg 42%
    07:00 +30°C° 0 mm 2 mps 755 mmHg 37%
    08:00 +32°C° 0 mm 2 mps 755 mmHg 32%
    09:00 +35°C° 0 mm 2 mps 755 mmHg 28%
    10:00 +37°C° 0 mm 3 mps 755 mmHg 25%
    11:00 +40°C° 0 mm 4 mps 755 mmHg 22%
    12:00 +41°C° 0 mm 5 mps 755 mmHg 19%
    13:00 +41°C° 0 mm 6 mps 755 mmHg 20%
    14:00 +41°C° 0 mm 7 mps 754 mmHg 22%
    15:00 +40°C° 0 mm 8 mps 754 mmHg 23%
    16:00 +38°C° 0 mm 8 mps 754 mmHg 28%
    17:00 +36°C° 0 mm 7 mps 754 mmHg 33%
    18:00 +34°C° 0 mm 6 mps 754 mmHg 38%
    19:00 +32°C° 0 mm 5 mps 755 mmHg 42%
    20:00 +30°C° 0 mm 5 mps 755 mmHg 46%
    21:00 +28°C° 0 mm 4 mps 755 mmHg 51%
    22:00 +28°C° 0 mm 3 mps 755 mmHg 49%
    23:00 +28°C° 0 mm 3 mps 755 mmHg 47%

    24 August, Saturday

    Time Temperature Precipitation Wind Pressure Humidity
    00:00 +28°C° 0 mm 3 mps 755 mmHg 46%
    01:00 +28°C° 0 mm 3 mps 755 mmHg 47%
    02:00 +27°C° 0 mm 3 mps 755 mmHg 47%
    03:00 +27°C° 0 mm 3 mps 755 mmHg 48%
    04:00 +27°C° 0 mm 3 mps 755 mmHg 49%
    05:00 +27°C° 0 mm 3 mps 755 mmHg 50%
    06:00 +27°C° 0 mm 3 mps 756 mmHg 51%
    07:00 +30°C° 0 mm 3 mps 756 mmHg 43%
    08:00 +33°C° 0 mm 3 mps 756 mmHg 35%
    09:00 +36°C° 0 mm 4 mps 756 mmHg 28%
    10:00 +37°C° 0 mm 5 mps 756 mmHg 25%
    11:00 +39°C° 0 mm 6 mps 756 mmHg 21%
    12:00 +40°C° 0 mm 7 mps 756 mmHg 18%
    13:00 +40°C° 0 mm 7 mps 755 mmHg 18%
    14:00 +39°C° 0 mm 7 mps 755 mmHg 17%
    15:00 +39°C° 0 mm 8 mps 755 mmHg 16%
    16:00 +36°C° 0 mm 7 mps 755 mmHg 18%
    17:00 +35°C° 0 mm 6 mps 755 mmHg 20%
    18:00 +33°C° 0 mm 6 mps 755 mmHg 22%
    19:00 +30°C° 0 mm 5 mps 756 mmHg 27%
    20:00 +28°C° 0 mm 4 mps 756 mmHg 32%
    21:00 +27°C° 0 mm 3 mps 757 mmHg 37%
    22:00 +26°C° 0 mm 3 mps 757 mmHg 36%
    23:00 +26°C° 0 mm 3 mps 757 mmHg 35%
    Show more